TimeMST,TemperatureF,Dew PointF,Humidity,Sea Level PressureIn,VisibilityMPH,Wind Direction,Wind SpeedMPH,Gust SpeedMPH,PrecipitationIn,Events,Conditions,WindDirDegrees,DateUTC
12:53 AM,21.9,16.0,78,30.31,10.0,Calm,Calm,-,N/A,,Overcast,0,2013-01-21 07:53:00
1:53 AM,23.0,17.1,78,30.30,10.0,Calm,Calm,-,N/A,,Overcast,0,2013-01-21 08:53:00
2:53 AM,23.0,19.9,88,30.29,10.0,South,3.5,-,N/A,,Overcast,180,2013-01-21 09:53:00
3:01 AM,23.0,19.4,86,30.28,10.0,SSW,3.5,-,N/A,,Overcast,200,2013-01-21 10:01:00
3:16 AM,23.0,19.4,86,30.27,10.0,SSE,4.6,-,N/A,,Overcast,160,2013-01-21 10:16:00
3:53 AM,24.1,21.0,88,30.28,9.0,East,4.6,-,N/A,,Overcast,90,2013-01-21 10:53:00
4:07 AM,24.8,21.2,86,30.26,8.0,East,4.6,-,N/A,,Overcast,100,2013-01-21 11:07:00
4:53 AM,23.0,21.0,92,30.30,8.0,Calm,Calm,-,N/A,,Overcast,0,2013-01-21 11:53:00
5:53 AM,23.0,21.0,92,30.32,8.0,Calm,Calm,-,N/A,,Overcast,0,2013-01-21 12:53:00
6:53 AM,24.1,21.9,91,30.34,8.0,Calm,Calm,-,N/A,,Overcast,0,2013-01-21 13:53:00
7:53 AM,24.1,21.0,88,30.35,8.0,North,3.5,-,N/A,,Overcast,360,2013-01-21 14:53:00
8:53 AM,24.1,21.0,88,30.35,8.0,WNW,4.6,-,N/A,,Overcast,290,2013-01-21 15:53:00
9:53 AM,26.1,21.9,84,30.35,10.0,West,9.2,-,N/A,,Overcast,260,2013-01-21 16:53:00
10:21 AM,26.6,21.2,80,30.26,10.0,West,10.4,-,N/A,,Overcast,260,2013-01-21 17:21:00
10:53 AM,28.9,21.9,75,30.33,10.0,West,8.1,-,N/A,,Mostly Cloudy,260,2013-01-21 17:53:00
11:03 AM,30.2,21.2,69,30.23,10.0,West,9.2,-,N/A,,Partly Cloudy,270,2013-01-21 18:03:00
11:53 AM,34.0,21.9,61,30.27,10.0,WSW,8.1,-,N/A,,Clear,250,2013-01-21 18:53:00
12:53 PM,39.9,21.0,47,30.20,10.0,West,5.8,-,N/A,,Clear,280,2013-01-21 19:53:00
1:53 PM,46.0,19.9,35,30.15,10.0,Variable,4.6,-,N/A,,Clear,0,2013-01-21 20:53:00
2:53 PM,51.1,17.1,26,30.10,10.0,SW,6.9,-,N/A,,Clear,220,2013-01-21 21:53:00
3:53 PM,53.1,16.0,23,30.08,10.0,South,5.8,-,N/A,,Clear,180,2013-01-21 22:53:00
4:53 PM,48.0,16.0,28,30.08,10.0,SSE,4.6,-,N/A,,Clear,150,2013-01-21 23:53:00
5:53 PM,39.0,14.0,36,30.12,10.0,SSW,4.6,-,N/A,,Clear,200,2013-01-22 00:53:00
6:53 PM,28.0,12.9,53,30.14,10.0,SSW,11.5,-,N/A,,Clear,200,2013-01-22 01:53:00
7:53 PM,27.0,12.0,53,30.14,10.0,WSW,3.5,-,N/A,,Clear,240,2013-01-22 02:53:00
8:53 PM,25.0,10.9,55,30.14,10.0,Calm,Calm,-,N/A,,Clear,0,2013-01-22 03:53:00
9:53 PM,27.0,10.9,51,30.14,10.0,Calm,Calm,-,N/A,,Clear,0,2013-01-22 04:53:00
10:53 PM,24.1,12.9,62,30.14,10.0,SW,4.6,-,N/A,,Clear,230,2013-01-22 05:53:00
11:53 PM,19.9,12.9,74,30.14,10.0,SW,6.9,-,N/A,,Clear,230,2013-01-22 06:53:00